sat.trackr.live / text

‹ back to catalog

POLYITAN-1

NORAD 40042 · 2014-033AJ

PAYLOAD ACTIVE UNKNOWN

§ Identity

Operator
Country
UKR
Launch date
2014-06-19
Launch site
DLS
Launch vehicle
Mass (kg)
RCS (m²)
0.07

Purposes: tech_demo

External: N2YO · Heavens-Above · Gunter

§ Orbital elements

Epoch: 2026-09-13T01:45:27.433152Z

Period
93.75 min
Inclination
98.0890°
Eccentricity
0.0006380
Mean motion
15.36050628 rev/d
Perigee alt
453.4 km
Apogee alt
462.2 km
Semi-major
6,835.9 km
B*
3.6951e-4
RAAN
290.8294°
Arg perigee
185.4253°
Mean anomaly
174.6921°
Rev number
66,707

§ Raw data

POLYITAN-11 40042U 14033AJ  26256.07323418  .00012896  00000+0  36951-3 0  99922 40042  98.0890 290.8294 0006380 185.4253 174.6921 15.36050628667077

JSON: /api/v1/satellites/40042 · /tle

For live sub-satellite position, see the globe view (requires WebGL).

§ Visibility from observer

Set your observer location to see the next 7 days of passes ≥ 10°. The values pass through the URL so the page stays shareable.

No JS? Fill the form by hand. The geolocation button needs JavaScript.

§ Radio — SatNOGS DB

ModeDescriptionDownlinkUplink
FSK 9k6 FSK TLM 437.675 MHz
FSK PE0SAT - 9k6 FSK TLM (inactive) 437.676 MHz

2 transmitters · refreshed weekly from db.satnogs.org